Japanese version Home page |
Updated on August 7, 2004 |
Profile
|
Orbital ElementsEpoch 2003 Dec. 27.0 TT = JDT 2453000.5 T 2003 Dec. 26.65139 TT MPC q 1.4305131 (2000.0) P Q z +0.0065150 Peri. 317.14861 -0.10825306 -0.42757479 +/-0.0000348 Node 248.27478 -0.42312329 -0.79710859 e 0.9906802 Incl. 104.96207 -0.89958210 +0.42637741
|
Finding Charts
|
Magnitudes Graphm1 = 14.7 + 5 log d + 7.5 log r
|
The orbital elements are published on M.P.E.C. 2004-L39.
|